"Time","Value","Approval","myLocation"
"2023-03-30 00:00",24.45,"Approved","OW474"
"2023-03-30 01:00",24.455,"Approved","OW474"
"2023-03-30 02:00",24.449,"Approved","OW474"
"2023-03-30 03:00",24.455,"Approved","OW474"
"2023-03-30 04:00",24.461,"Approved","OW474"
"2023-03-30 05:00",24.464,"Approved","OW474"
"2023-03-30 06:00",24.462,"Approved","OW474"
"2023-03-30 07:00",24.464,"Approved","OW474"
"2023-03-30 08:00",24.463,"Approved","OW474"
"2023-03-30 09:00",24.462,"Approved","OW474"
"2023-03-30 10:00",24.46,"Approved","OW474"
"2023-03-30 11:00",24.46,"Approved","OW474"
"2023-03-30 12:00",24.463,"Approved","OW474"
"2023-03-30 13:00",24.466,"Approved","OW474"
"2023-03-30 14:00",24.466,"Approved","OW474"
"2023-03-30 15:00",24.467,"Approved","OW474"
"2023-03-30 16:00",24.464,"Approved","OW474"
"2023-03-30 17:00",24.466,"Approved","OW474"
"2023-03-30 18:00",24.466,"Approved","OW474"
"2023-03-30 19:00",24.467,"Approved","OW474"
"2023-03-30 20:00",24.464,"Approved","OW474"
"2023-03-30 21:00",24.468,"Approved","OW474"
"2023-03-30 22:00",24.463,"Approved","OW474"
"2023-03-30 23:00",24.467,"Approved","OW474"
"2023-03-31 00:00",24.47,"Approved","OW474"
"2023-03-31 01:00",24.467,"Approved","OW474"
"2023-03-31 02:00",24.472,"Approved","OW474"
"2023-03-31 03:00",24.476,"Approved","OW474"
"2023-03-31 04:00",24.479,"Approved","OW474"
"2023-03-31 05:00",24.481,"Approved","OW474"
"2023-03-31 06:00",24.481,"Approved","OW474"
"2023-03-31 07:00",24.481,"Approved","OW474"
"2023-03-31 08:00",24.481,"Approved","OW474"
"2023-03-31 09:00",24.487,"Approved","OW474"
"2023-03-31 10:00",24.485,"Approved","OW474"
"2023-03-31 11:00",24.483,"Approved","OW474"
"2023-03-31 12:00",24.481,"Approved","OW474"
"2023-03-31 13:00",24.481,"Approved","OW474"
"2023-03-31 14:00",24.48,"Approved","OW474"
"2023-03-31 15:00",24.479,"Approved","OW474"
"2023-03-31 16:00",24.479,"Approved","OW474"
"2023-03-31 17:00",24.481,"Approved","OW474"
"2023-03-31 18:00",24.484,"Approved","OW474"
"2023-03-31 19:00",24.484,"Approved","OW474"
"2023-03-31 20:00",24.483,"Approved","OW474"
"2023-03-31 21:00",24.479,"Approved","OW474"
"2023-03-31 22:00",24.481,"Approved","OW474"
"2023-03-31 23:00",24.476,"Approved","OW474"
"2023-04-01 00:00",24.474,"Approved","OW474"
"2023-04-01 01:00",24.471,"Approved","OW474"
"2023-04-01 02:00",24.466,"Approved","OW474"
"2023-04-01 03:00",24.462,"Approved","OW474"
"2023-04-01 04:00",24.466,"Approved","OW474"
"2023-04-01 05:00",24.465,"Approved","OW474"
"2023-04-01 06:00",24.462,"Approved","OW474"
"2023-04-01 07:00",24.467,"Approved","OW474"
"2023-04-01 08:00",24.472,"Approved","OW474"
"2023-04-01 09:00",24.479,"Approved","OW474"
"2023-04-01 10:00",24.476,"Approved","OW474"
"2023-04-01 11:00",24.478,"Approved","OW474"
"2023-04-01 12:00",24.478,"Approved","OW474"
"2023-04-01 13:00",24.475,"Approved","OW474"
"2023-04-01 14:00",24.477,"Approved","OW474"
"2023-04-01 15:00",24.488,"Approved","OW474"
"2023-04-01 16:00",24.484,"Approved","OW474"
"2023-04-01 17:00",24.484,"Approved","OW474"
"2023-04-01 18:00",24.489,"Approved","OW474"
"2023-04-01 19:00",24.485,"Approved","OW474"
"2023-04-01 20:00",24.486,"Approved","OW474"
"2023-04-01 21:00",24.488,"Approved","OW474"
"2023-04-01 22:00",24.483,"Approved","OW474"
"2023-04-01 23:00",24.486,"Approved","OW474"
"2023-04-02 00:00",24.485,"Approved","OW474"
"2023-04-02 01:00",24.485,"Approved","OW474"
"2023-04-02 02:00",24.489,"Approved","OW474"
"2023-04-02 03:00",24.494,"Approved","OW474"
"2023-04-02 04:00",24.496,"Approved","OW474"
"2023-04-02 05:00",24.495,"Approved","OW474"
"2023-04-02 06:00",24.501,"Approved","OW474"
"2023-04-02 07:00",24.495,"Approved","OW474"
"2023-04-02 08:00",24.496,"Approved","OW474"
"2023-04-02 09:00",24.492,"Approved","OW474"
"2023-04-02 10:00",24.489,"Approved","OW474"
"2023-04-02 11:00",24.492,"Approved","OW474"
"2023-04-02 12:00",24.489,"Approved","OW474"
"2023-04-02 13:00",24.489,"Approved","OW474"
"2023-04-02 14:00",24.489,"Approved","OW474"
"2023-04-02 15:00",24.49,"Approved","OW474"
"2023-04-02 16:00",24.492,"Approved","OW474"
"2023-04-02 17:00",24.493,"Approved","OW474"
"2023-04-02 18:00",24.495,"Approved","OW474"
"2023-04-02 19:00",24.492,"Approved","OW474"
"2023-04-02 20:00",24.494,"Approved","OW474"
"2023-04-02 21:00",24.495,"Approved","OW474"
"2023-04-02 22:00",24.495,"Approved","OW474"
"2023-04-02 23:00",24.497,"Approved","OW474"
"2023-04-03 00:00",24.501,"Approved","OW474"
"2023-04-03 01:00",24.498,"Approved","OW474"
"2023-04-03 02:00",24.498,"Approved","OW474"
"2023-04-03 03:00",24.502,"Approved","OW474"
"2023-04-03 04:00",24.506,"Approved","OW474"
"2023-04-03 05:00",24.506,"Approved","OW474"
"2023-04-03 06:00",24.506,"Approved","OW474"
"2023-04-03 07:00",24.506,"Approved","OW474"
"2023-04-03 08:00",24.503,"Approved","OW474"
"2023-04-03 09:00",24.506,"Approved","OW474"
"2023-04-03 10:00",24.508,"Approved","OW474"
"2023-04-03 11:00",24.505,"Approved","OW474"
"2023-04-03 12:00",24.512,"Approved","OW474"
"2023-04-03 13:00",24.512,"Approved","OW474"
"2023-04-03 14:00",24.515,"Approved","OW474"
"2023-04-03 15:00",24.517,"Approved","OW474"
"2023-04-03 16:00",24.514,"Approved","OW474"
"2023-04-03 17:00",24.513,"Approved","OW474"
"2023-04-03 18:00",24.52,"Approved","OW474"
"2023-04-03 19:00",24.517,"Approved","OW474"
"2023-04-03 20:00",24.513,"Approved","OW474"
"2023-04-03 21:00",24.511,"Approved","OW474"
"2023-04-03 22:00",24.505,"Approved","OW474"
"2023-04-03 23:00",24.509,"Approved","OW474"
"2023-04-04 00:00",24.503,"Approved","OW474"
"2023-04-04 01:00",24.503,"Approved","OW474"
"2023-04-04 02:00",24.512,"Approved","OW474"
"2023-04-04 03:00",24.509,"Approved","OW474"
"2023-04-04 04:00",24.518,"Approved","OW474"
"2023-04-04 05:00",24.518,"Approved","OW474"
"2023-04-04 06:00",24.514,"Approved","OW474"
"2023-04-04 07:00",24.516,"Approved","OW474"
"2023-04-04 08:00",24.52,"Approved","OW474"
"2023-04-04 09:00",24.517,"Approved","OW474"
"2023-04-04 10:00",24.516,"Approved","OW474"
"2023-04-04 11:00",24.519,"Approved","OW474"
"2023-04-04 12:00",24.518,"Approved","OW474"
"2023-04-04 13:00",24.524,"Approved","OW474"
"2023-04-04 14:00",24.525,"Approved","OW474"
"2023-04-04 15:00",24.529,"Approved","OW474"
"2023-04-04 16:00",24.532,"Approved","OW474"
"2023-04-04 17:00",24.529,"Approved","OW474"
"2023-04-04 18:00",24.533,"Approved","OW474"
"2023-04-04 19:00",24.53,"Approved","OW474"
"2023-04-04 20:00",24.53,"Approved","OW474"
"2023-04-04 21:00",24.524,"Approved","OW474"
"2023-04-04 22:00",24.52,"Approved","OW474"
"2023-04-04 23:00",24.522,"Approved","OW474"
"2023-04-05 00:00",24.525,"Approved","OW474"
"2023-04-05 01:00",24.525,"Approved","OW474"
"2023-04-05 02:00",24.527,"Approved","OW474"
"2023-04-05 03:00",24.527,"Approved","OW474"
"2023-04-05 04:00",24.534,"Approved","OW474"
"2023-04-05 05:00",24.533,"Approved","OW474"
"2023-04-05 06:00",24.535,"Approved","OW474"
"2023-04-05 07:00",24.535,"Approved","OW474"
"2023-04-05 08:00",24.531,"Approved","OW474"
"2023-04-05 09:00",24.532,"Approved","OW474"
"2023-04-05 10:00",24.529,"Approved","OW474"
"2023-04-05 11:00",24.531,"Approved","OW474"
"2023-04-05 12:00",24.532,"Approved","OW474"
"2023-04-05 13:00",24.529,"Approved","OW474"
"2023-04-05 14:00",24.529,"Approved","OW474"
"2023-04-05 15:00",24.529,"Approved","OW474"
"2023-04-05 16:00",24.53,"Approved","OW474"
"2023-04-05 17:00",24.528,"Approved","OW474"
"2023-04-05 18:00",24.525,"Approved","OW474"
"2023-04-05 19:00",24.525,"Approved","OW474"
"2023-04-05 20:00",24.524,"Approved","OW474"
"2023-04-05 21:00",24.525,"Approved","OW474"
"2023-04-05 22:00",24.523,"Approved","OW474"
"2023-04-05 23:00",24.518,"Approved","OW474"
"2023-04-06 00:00",24.513,"Approved","OW474"
"2023-04-06 01:00",24.515,"Approved","OW474"
"2023-04-06 02:00",24.508,"Approved","OW474"
"2023-04-06 03:00",24.508,"Approved","OW474"
"2023-04-06 04:00",24.517,"Approved","OW474"
"2023-04-06 05:00",24.518,"Approved","OW474"
"2023-04-06 06:00",24.519,"Approved","OW474"
"2023-04-06 07:00",24.515,"Approved","OW474"
"2023-04-06 08:00",24.517,"Approved","OW474"
"2023-04-06 09:00",24.515,"Approved","OW474"
"2023-04-06 10:00",24.511,"Approved","OW474"
"2023-04-06 11:00",24.507,"Approved","OW474"
"2023-04-06 12:00",24.507,"Approved","OW474"
"2023-04-06 13:00",24.507,"Approved","OW474"
"2023-04-06 14:00",24.501,"Approved","OW474"
"2023-04-06 15:00",24.507,"Approved","OW474"
"2023-04-06 16:00",24.506,"Approved","OW474"
"2023-04-06 17:00",24.502,"Approved","OW474"
"2023-04-06 18:00",24.502,"Approved","OW474"
"2023-04-06 19:00",24.502,"Approved","OW474"
"2023-04-06 20:00",24.501,"Approved","OW474"
"2023-04-06 21:00",24.501,"Approved","OW474"
"2023-04-06 22:00",24.503,"Approved","OW474"
"2023-04-06 23:00",24.499,"Approved","OW474"
"2023-04-07 00:00",24.497,"Approved","OW474"
"2023-04-07 01:00",24.498,"Approved","OW474"
"2023-04-07 02:00",24.5,"Approved","OW474"
"2023-04-07 03:00",24.494,"Approved","OW474"
"2023-04-07 04:00",24.5,"Approved","OW474"
"2023-04-07 05:00",24.499,"Approved","OW474"
"2023-04-07 06:00",24.497,"Approved","OW474"
"2023-04-07 07:00",24.498,"Approved","OW474"
"2023-04-07 08:00",24.5,"Approved","OW474"
"2023-04-07 09:00",24.5,"Approved","OW474"
"2023-04-07 10:00",24.499,"Approved","OW474"
"2023-04-07 11:00",24.503,"Approved","OW474"
"2023-04-07 12:00",24.499,"Approved","OW474"
"2023-04-07 13:00",24.501,"Approved","OW474"
"2023-04-07 14:00",24.504,"Approved","OW474"
"2023-04-07 15:00",24.501,"Approved","OW474"
"2023-04-07 16:00",24.505,"Approved","OW474"
"2023-04-07 17:00",24.504,"Approved","OW474"
"2023-04-07 18:00",24.511,"Approved","OW474"
"2023-04-07 19:00",24.513,"Approved","OW474"
"2023-04-07 20:00",24.51,"Approved","OW474"
"2023-04-07 21:00",24.508,"Approved","OW474"
"2023-04-07 22:00",24.512,"Approved","OW474"
"2023-04-07 23:00",24.509,"Approved","OW474"
"2023-04-08 00:00",24.51,"Approved","OW474"
"2023-04-08 01:00",24.512,"Approved","OW474"
"2023-04-08 02:00",24.513,"Approved","OW474"
"2023-04-08 03:00",24.514,"Approved","OW474"
"2023-04-08 04:00",24.519,"Approved","OW474"
"2023-04-08 05:00",24.526,"Approved","OW474"
"2023-04-08 06:00",24.527,"Approved","OW474"
"2023-04-08 07:00",24.523,"Approved","OW474"
"2023-04-08 08:00",24.526,"Approved","OW474"
"2023-04-08 09:00",24.524,"Approved","OW474"
"2023-04-08 10:00",24.524,"Approved","OW474"
"2023-04-08 11:00",24.524,"Approved","OW474"
"2023-04-08 12:00",24.526,"Approved","OW474"
"2023-04-08 13:00",24.522,"Approved","OW474"
"2023-04-08 14:00",24.525,"Approved","OW474"
"2023-04-08 15:00",24.529,"Approved","OW474"
"2023-04-08 16:00",24.524,"Approved","OW474"
"2023-04-08 17:00",24.53,"Approved","OW474"
"2023-04-08 18:00",24.537,"Approved","OW474"
"2023-04-08 19:00",24.54,"Approved","OW474"
"2023-04-08 20:00",24.532,"Approved","OW474"
"2023-04-08 21:00",24.53,"Approved","OW474"
"2023-04-08 22:00",24.536,"Approved","OW474"
"2023-04-08 23:00",24.538,"Approved","OW474"
"2023-04-09 00:00",24.532,"Approved","OW474"
"2023-04-09 01:00",24.535,"Approved","OW474"
"2023-04-09 02:00",24.534,"Approved","OW474"
"2023-04-09 03:00",24.538,"Approved","OW474"
"2023-04-09 04:00",24.54,"Approved","OW474"
"2023-04-09 05:00",24.54,"Approved","OW474"
"2023-04-09 06:00",24.534,"Approved","OW474"
"2023-04-09 07:00",24.528,"Approved","OW474"
"2023-04-09 08:00",24.531,"Approved","OW474"
"2023-04-09 09:00",24.528,"Approved","OW474"
"2023-04-09 10:00",24.528,"Approved","OW474"
"2023-04-09 11:00",24.527,"Approved","OW474"
"2023-04-09 12:00",24.528,"Approved","OW474"
"2023-04-09 13:00",24.525,"Approved","OW474"
"2023-04-09 14:00",24.523,"Approved","OW474"
"2023-04-09 15:00",24.522,"Approved","OW474"
"2023-04-09 16:00",24.527,"Approved","OW474"
"2023-04-09 17:00",24.523,"Approved","OW474"
"2023-04-09 18:00",24.518,"Approved","OW474"
"2023-04-09 19:00",24.514,"Approved","OW474"
"2023-04-09 20:00",24.51,"Approved","OW474"
"2023-04-09 21:00",24.524,"Approved","OW474"
"2023-04-09 22:00",24.517,"Approved","OW474"
"2023-04-09 23:00",24.522,"Approved","OW474"
"2023-04-10 00:00",24.521,"Approved","OW474"
"2023-04-10 01:00",24.523,"Approved","OW474"
"2023-04-10 02:00",24.533,"Approved","OW474"
"2023-04-10 03:00",24.546,"Approved","OW474"
"2023-04-10 04:00",24.556,"Approved","OW474"
"2023-04-10 05:00",24.56,"Approved","OW474"
"2023-04-10 06:00",24.56,"Approved","OW474"
"2023-04-10 07:00",24.556,"Approved","OW474"
"2023-04-10 08:00",24.553,"Approved","OW474"
"2023-04-10 09:00",24.551,"Approved","OW474"
"2023-04-10 10:00",24.543,"Approved","OW474"
"2023-04-10 11:00",24.539,"Approved","OW474"
"2023-04-10 12:00",24.534,"Approved","OW474"
"2023-04-10 13:00",24.526,"Approved","OW474"
"2023-04-10 14:00",24.525,"Approved","OW474"
"2023-04-10 15:00",24.528,"Approved","OW474"
"2023-04-10 16:00",24.526,"Approved","OW474"
"2023-04-10 17:00",24.523,"Approved","OW474"
"2023-04-10 18:00",24.524,"Approved","OW474"
"2023-04-10 19:00",24.521,"Approved","OW474"
"2023-04-10 20:00",24.514,"Approved","OW474"
"2023-04-10 21:00",24.513,"Approved","OW474"
"2023-04-10 22:00",24.511,"Approved","OW474"
"2023-04-10 23:00",24.51,"Approved","OW474"
"2023-04-11 00:00",24.509,"Approved","OW474"
"2023-04-11 01:00",24.511,"Approved","OW474"
"2023-04-11 02:00",24.505,"Approved","OW474"
"2023-04-11 03:00",24.499,"Approved","OW474"
"2023-04-11 04:00",24.503,"Approved","OW474"
"2023-04-11 05:00",24.507,"Approved","OW474"
"2023-04-11 06:00",24.505,"Approved","OW474"
"2023-04-11 07:00",24.502,"Approved","OW474"
"2023-04-11 08:00",24.508,"Approved","OW474"
"2023-04-11 09:00",24.506,"Approved","OW474"
"2023-04-11 10:00",24.503,"Approved","OW474"
"2023-04-11 11:00",24.501,"Approved","OW474"
"2023-04-11 12:00",24.497,"Approved","OW474"
"2023-04-11 13:00",24.495,"Approved","OW474"
"2023-04-11 14:00",24.498,"Approved","OW474"
"2023-04-11 15:00",24.503,"Approved","OW474"
"2023-04-11 16:00",24.504,"Approved","OW474"
"2023-04-11 17:00",24.512,"Approved","OW474"
"2023-04-11 18:00",24.522,"Approved","OW474"
"2023-04-11 19:00",24.523,"Approved","OW474"
"2023-04-11 20:00",24.52,"Approved","OW474"
"2023-04-11 21:00",24.511,"Approved","OW474"
"2023-04-11 22:00",24.516,"Approved","OW474"
"2023-04-11 23:00",24.516,"Approved","OW474"
"2023-04-12 00:00",24.516,"Approved","OW474"
"2023-04-12 01:00",24.514,"Approved","OW474"
"2023-04-12 02:00",24.511,"Approved","OW474"
"2023-04-12 03:00",24.513,"Approved","OW474"
"2023-04-12 04:00",24.516,"Approved","OW474"
"2023-04-12 05:00",24.515,"Approved","OW474"
"2023-04-12 06:00",24.512,"Approved","OW474"
"2023-04-12 07:00",24.509,"Approved","OW474"
"2023-04-12 08:00",24.507,"Approved","OW474"
"2023-04-12 09:00",24.503,"Approved","OW474"
"2023-04-12 10:00",24.498,"Approved","OW474"
"2023-04-12 11:00",24.502,"Approved","OW474"
"2023-04-12 12:00",24.505,"Approved","OW474"
"2023-04-12 13:00",24.501,"Approved","OW474"
"2023-04-12 14:00",24.505,"Approved","OW474"
"2023-04-12 15:00",24.502,"Approved","OW474"
"2023-04-12 16:00",24.502,"Approved","OW474"
"2023-04-12 17:00",24.503,"Approved","OW474"
"2023-04-12 18:00",24.501,"Approved","OW474"
"2023-04-12 19:00",24.498,"Approved","OW474"
"2023-04-12 20:00",24.498,"Approved","OW474"
"2023-04-12 21:00",24.494,"Approved","OW474"
"2023-04-12 22:00",24.5,"Approved","OW474"
"2023-04-12 23:00",24.49,"Approved","OW474"
"2023-04-13 00:00",24.495,"Approved","OW474"
"2023-04-13 01:00",24.489,"Approved","OW474"
"2023-04-13 02:00",24.491,"Approved","OW474"
"2023-04-13 03:00",24.494,"Approved","OW474"
"2023-04-13 04:00",24.501,"Approved","OW474"
"2023-04-13 05:00",24.496,"Approved","OW474"
"2023-04-13 06:00",24.495,"Approved","OW474"
"2023-04-13 07:00",24.495,"Approved","OW474"
"2023-04-13 08:00",24.491,"Approved","OW474"
"2023-04-13 09:00",24.487,"Approved","OW474"
"2023-04-13 10:00",24.488,"Approved","OW474"
"2023-04-13 11:00",24.489,"Approved","OW474"
"2023-04-13 12:00",24.487,"Approved","OW474"
"2023-04-13 13:00",24.488,"Approved","OW474"
"2023-04-13 14:00",24.486,"Approved","OW474"
"2023-04-13 15:00",24.488,"Approved","OW474"
"2023-04-13 16:00",24.49,"Approved","OW474"
"2023-04-13 17:00",24.486,"Approved","OW474"
"2023-04-13 18:00",24.484,"Approved","OW474"
"2023-04-13 19:00",24.486,"Approved","OW474"
"2023-04-13 20:00",24.479,"Approved","OW474"
"2023-04-13 21:00",24.472,"Approved","OW474"
"2023-04-13 22:00",24.474,"Approved","OW474"
"2023-04-13 23:00",24.47,"Approved","OW474"
"2023-04-14 00:00",24.472,"Approved","OW474"
"2023-04-14 01:00",24.468,"Approved","OW474"
"2023-04-14 02:00",24.469,"Approved","OW474"
"2023-04-14 03:00",24.467,"Approved","OW474"
"2023-04-14 04:00",24.478,"Approved","OW474"
"2023-04-14 05:00",24.481,"Approved","OW474"
"2023-04-14 06:00",24.478,"Approved","OW474"
"2023-04-14 07:00",24.476,"Approved","OW474"
"2023-04-14 08:00",24.476,"Approved","OW474"
"2023-04-14 09:00",24.47,"Approved","OW474"
"2023-04-14 10:00",24.466,"Approved","OW474"
"2023-04-14 11:00",24.467,"Approved","OW474"
"2023-04-14 12:00",24.469,"Approved","OW474"
"2023-04-14 13:00",24.468,"Approved","OW474"
"2023-04-14 14:00",24.47,"Approved","OW474"
"2023-04-14 15:00",24.476,"Approved","OW474"
"2023-04-14 16:00",24.475,"Approved","OW474"
"2023-04-14 17:00",24.472,"Approved","OW474"
"2023-04-14 18:00",24.466,"Approved","OW474"
"2023-04-14 19:00",24.462,"Approved","OW474"
"2023-04-14 20:00",24.46,"Approved","OW474"
"2023-04-14 21:00",24.457,"Approved","OW474"
"2023-04-14 22:00",24.465,"Approved","OW474"
"2023-04-14 23:00",24.463,"Approved","OW474"
"2023-04-15 00:00",24.459,"Approved","OW474"
"2023-04-15 01:00",24.458,"Approved","OW474"
"2023-04-15 02:00",24.459,"Approved","OW474"
"2023-04-15 03:00",24.463,"Approved","OW474"
"2023-04-15 04:00",24.468,"Approved","OW474"
"2023-04-15 05:00",24.464,"Approved","OW474"
"2023-04-15 06:00",24.465,"Approved","OW474"
"2023-04-15 07:00",24.466,"Approved","OW474"
"2023-04-15 08:00",24.462,"Approved","OW474"
"2023-04-15 09:00",24.46,"Approved","OW474"
"2023-04-15 10:00",24.457,"Approved","OW474"
"2023-04-15 11:00",24.456,"Approved","OW474"
"2023-04-15 12:00",24.453,"Approved","OW474"
"2023-04-15 13:00",24.454,"Approved","OW474"
"2023-04-15 14:00",24.453,"Approved","OW474"
"2023-04-15 15:00",24.455,"Approved","OW474"
"2023-04-15 16:00",24.46,"Approved","OW474"
"2023-04-15 17:00",24.46,"Approved","OW474"
"2023-04-15 18:00",24.462,"Approved","OW474"
"2023-04-15 19:00",24.469,"Approved","OW474"
"2023-04-15 20:00",24.467,"Approved","OW474"
"2023-04-15 21:00",24.464,"Approved","OW474"
"2023-04-15 22:00",24.461,"Approved","OW474"
"2023-04-15 23:00",24.455,"Approved","OW474"
"2023-04-16 00:00",24.451,"Approved","OW474"
"2023-04-16 01:00",24.451,"Approved","OW474"
"2023-04-16 02:00",24.45,"Approved","OW474"
"2023-04-16 03:00",24.442,"Approved","OW474"
"2023-04-16 04:00",24.443,"Approved","OW474"
"2023-04-16 05:00",24.444,"Approved","OW474"
"2023-04-16 06:00",24.441,"Approved","OW474"
"2023-04-16 07:00",24.439,"Approved","OW474"
"2023-04-16 08:00",24.437,"Approved","OW474"
"2023-04-16 09:00",24.435,"Approved","OW474"
"2023-04-16 10:00",24.426,"Approved","OW474"
"2023-04-16 11:00",24.426,"Approved","OW474"
"2023-04-16 12:00",24.425,"Approved","OW474"
"2023-04-16 13:00",24.428,"Approved","OW474"
"2023-04-16 14:00",24.421,"Approved","OW474"
"2023-04-16 15:00",24.417,"Approved","OW474"
"2023-04-16 16:00",24.406,"Approved","OW474"
"2023-04-16 17:00",24.412,"Approved","OW474"
"2023-04-16 18:00",24.413,"Approved","OW474"
"2023-04-16 19:00",24.42,"Approved","OW474"
"2023-04-16 20:00",24.42,"Approved","OW474"
"2023-04-16 21:00",24.418,"Approved","OW474"
"2023-04-16 22:00",24.421,"Approved","OW474"
"2023-04-16 23:00",24.428,"Approved","OW474"
"2023-04-17 00:00",24.425,"Approved","OW474"
"2023-04-17 01:00",24.422,"Approved","OW474"
"2023-04-17 02:00",24.429,"Approved","OW474"
"2023-04-17 03:00",24.432,"Approved","OW474"
"2023-04-17 04:00",24.438,"Approved","OW474"
"2023-04-17 05:00",24.436,"Approved","OW474"
"2023-04-17 06:00",24.434,"Approved","OW474"
"2023-04-17 07:00",24.429,"Approved","OW474"
"2023-04-17 08:00",24.423,"Approved","OW474"
"2023-04-17 09:00",24.43,"Approved","OW474"
"2023-04-17 10:00",24.421,"Approved","OW474"
"2023-04-17 11:00",24.42,"Approved","OW474"
"2023-04-17 12:00",24.413,"Approved","OW474"
"2023-04-17 13:00",24.415,"Approved","OW474"
"2023-04-17 14:00",24.412,"Approved","OW474"
"2023-04-17 15:00",24.408,"Approved","OW474"
"2023-04-17 16:00",24.404,"Approved","OW474"
"2023-04-17 17:00",24.392,"Approved","OW474"
"2023-04-17 18:00",24.386,"Approved","OW474"
"2023-04-17 19:00",24.385,"Approved","OW474"
"2023-04-17 20:00",24.381,"Approved","OW474"
"2023-04-17 21:00",24.376,"Approved","OW474"
"2023-04-17 22:00",24.375,"Approved","OW474"
"2023-04-17 23:00",24.384,"Approved","OW474"
"2023-04-18 00:00",24.388,"Approved","OW474"
"2023-04-18 01:00",24.388,"Approved","OW474"
"2023-04-18 02:00",24.39,"Approved","OW474"
"2023-04-18 03:00",24.39,"Approved","OW474"
"2023-04-18 04:00",24.386,"Approved","OW474"
"2023-04-18 05:00",24.387,"Approved","OW474"
"2023-04-18 06:00",24.381,"Approved","OW474"
"2023-04-18 07:00",24.388,"Approved","OW474"
"2023-04-18 08:00",24.388,"Approved","OW474"
"2023-04-18 09:00",24.383,"Approved","OW474"
"2023-04-18 10:00",24.381,"Approved","OW474"
"2023-04-18 11:00",24.384,"Approved","OW474"
"2023-04-18 12:00",24.391,"Approved","OW474"
"2023-04-18 13:00",24.385,"Approved","OW474"
"2023-04-18 14:00",24.394,"Approved","OW474"
"2023-04-18 15:00",24.397,"Approved","OW474"
"2023-04-18 16:00",24.397,"Approved","OW474"
"2023-04-18 17:00",24.408,"Approved","OW474"
"2023-04-18 18:00",24.411,"Approved","OW474"
"2023-04-18 19:00",24.411,"Approved","OW474"
"2023-04-18 20:00",24.412,"Approved","OW474"
"2023-04-18 21:00",24.412,"Approved","OW474"
"2023-04-18 22:00",24.409,"Approved","OW474"
"2023-04-18 23:00",24.406,"Approved","OW474"
"2023-04-19 00:00",24.408,"Approved","OW474"
"2023-04-19 01:00",24.41,"Approved","OW474"
"2023-04-19 02:00",24.409,"Approved","OW474"
"2023-04-19 03:00",24.409,"Approved","OW474"
"2023-04-19 04:00",24.413,"Approved","OW474"
"2023-04-19 05:00",24.414,"Approved","OW474"
"2023-04-19 06:00",24.413,"Approved","OW474"
"2023-04-19 07:00",24.41,"Approved","OW474"
"2023-04-19 08:00",24.41,"Approved","OW474"
"2023-04-19 09:00",24.405,"Approved","OW474"
"2023-04-19 10:00",24.402,"Approved","OW474"
"2023-04-19 11:00",24.406,"Approved","OW474"
"2023-04-19 12:00",24.406,"Approved","OW474"
"2023-04-19 13:00",24.405,"Approved","OW474"
"2023-04-19 14:00",24.411,"Approved","OW474"
"2023-04-19 15:00",24.416,"Approved","OW474"
"2023-04-19 16:00",24.412,"Approved","OW474"
"2023-04-19 17:00",24.416,"Approved","OW474"
"2023-04-19 18:00",24.42,"Approved","OW474"
"2023-04-19 19:00",24.419,"Approved","OW474"
"2023-04-19 20:00",24.424,"Approved","OW474"
"2023-04-19 21:00",24.427,"Approved","OW474"
"2023-04-19 22:00",24.42,"Approved","OW474"
"2023-04-19 23:00",24.421,"Approved","OW474"
"2023-04-20 00:00",24.422,"Approved","OW474"
"2023-04-20 01:00",24.425,"Approved","OW474"
"2023-04-20 02:00",24.425,"Approved","OW474"
"2023-04-20 03:00",24.429,"Approved","OW474"
"2023-04-20 04:00",24.431,"Approved","OW474"
"2023-04-20 05:00",24.431,"Approved","OW474"
"2023-04-20 06:00",24.434,"Approved","OW474"
"2023-04-20 07:00",24.431,"Approved","OW474"
"2023-04-20 08:00",24.433,"Approved","OW474"
"2023-04-20 09:00",24.432,"Approved","OW474"
"2023-04-20 10:00",24.431,"Approved","OW474"
"2023-04-20 11:00",24.43,"Approved","OW474"
"2023-04-20 12:00",24.426,"Approved","OW474"
"2023-04-20 13:00",24.425,"Approved","OW474"
"2023-04-20 14:00",24.421,"Approved","OW474"
"2023-04-20 15:00",24.416,"Approved","OW474"
"2023-04-20 16:00",24.42,"Approved","OW474"
"2023-04-20 17:00",24.412,"Approved","OW474"